This is the latest recevied weather packets stored in our database for station/object KK4WXG. If no packets are shown the sender has not sent any weather packets the latest 10 day(s).
| Time | Temp. | Humidity | Pressure | Rain* | Wind** | Luminosity | Snow |
|---|---|---|---|---|---|---|---|
| 1777722138 | 8.33° C | 64% | 1014.3 hPa | 0 mm | - | 161 W/m² | - |
| 1777721835 | 7.78° C | 65% | 1014.4 hPa | 0 mm | - | 126 W/m² | - |
| 1777721533 | 7.78° C | 65% | 1014.4 hPa | 0 mm | - | 128 W/m² | - |
| 1777721231 | 7.78° C | 66% | 1014.4 hPa | 0 mm | - | 102 W/m² | - |
| 1777720928 | 7.78° C | 66% | 1014.4 hPa | 0 mm | - | 106 W/m² | - |
| 1777720625 | 7.22° C | 67% | 1014.6 hPa | 0 mm | - | 85 W/m² | - |
| 1777720323 | 6.67° C | 67% | 1014.5 hPa | 0 mm | - | 80 W/m² | - |
| 1777720021 | 6.67° C | 67% | 1014.3 hPa | 0 mm | - | 57 W/m² | - |
| 1777719717 | 6.67° C | 68% | 1014.4 hPa | 0 mm | - | 53 W/m² | - |
| 1777719415 | 6.67° C | 68% | 1014.3 hPa | 0 mm | - | 49 W/m² | - |
| 1777719112 | 6.67° C | 67% | 1014.4 hPa | 0 mm | - | 43 W/m² | - |
| 1777718809 | 6.67° C | 68% | 1014.3 hPa | 0 mm | - | 37 W/m² | - |
| 1777718506 | 6.67° C | 67% | 1014.3 hPa | 0 mm | - | 30 W/m² | - |
| 1777718204 | 6.67° C | 68% | 1013.9 hPa | 0 mm | - | 22 W/m² | - |
| 1777717902 | 6.67° C | 67% | 1014 hPa | 0 mm | - | 16 W/m² | - |
| 1777717598 | 6.67° C | 67% | 1014 hPa | 0 mm | - | 11 W/m² | - |
| 1777717295 | 6.67° C | 67% | 1014 hPa | 0 mm | - | 8 W/m² | - |
| 1777716993 | 7.22° C | 67% | 1014 hPa | 0 mm | - | 5 W/m² | - |
| 1777716691 | 7.22° C | 67% | 1013.9 hPa | 0 mm | - | 3 W/m² | - |
| 1777716389 | 7.22° C | 66% | 1014.1 hPa | 0 mm | - | 2 W/m² | - |
| 1777716087 | 7.22° C | 66% | 1013.8 hPa | 0 mm | - | 1 W/m² | - |
| 1777715785 | 7.22° C | 65% | 1013.9 hPa | 0 mm | - | 0 W/m² | - |
| 1777715482 | 7.78° C | 66% | 1013.8 hPa | 0 mm | - | 0 W/m² | - |
| 1777715179 | 7.78° C | 65% | 1013.9 hPa | 0 mm | - | 0 W/m² | - |
| 1777714878 | 7.78° C | 67% | 1014.2 hPa | 0 mm | - | 0 W/m² | - |
* Rain latest hour (hover to see other rain measurements)
** Current wind speed in m/s (hover to see current wind gust speed)